Flag for Canada Weather past 2 weeks in Saint-Georges, Quebec, Canada

Now
74 °F

Mild.


Feels Like: 77 °F
Forecast: 51 / 74 °F
Wind: 7 mph from West

Location: Beauceville

Current Time: Jul 25, 2014 at 2:27:55 PM

Latest Report: Jul 25, 2014 at 1:00 PM


Visibility: N/A

Pressure: 29.86 "Hg

Humidity: 53%

Dew point: 55 °F

Location of Saint-GeorgesLocation

Historic Weather in Saint-Georges — Graph

°F

Saint-Georges temperature yesterday

Maximum temperature yesterday: 68 °F (at 5:00 PM)
Minimum temperature yesterday: 53 °F (at 6:00 AM)
Average temperature yesterday: 59 °F

Past Weeks' High & Low Weather Summary

 TemperatureHumidityPressure
High81 °F (Jul 15, 1:00 PM)98% (Jul 14, 2:00 AM)30.29 "Hg (Jul 14, 2:00 AM)
Low49 °F (Jul 11, 4:00 AM)35% (Jul 11, 5:00 PM)29.71 "Hg (Jul 23, 2:00 PM)
Average66 °F73%30.00 "Hg
* Reported Jul 10 1:00 PM — Jul 25 1:00 PM, Saint-Georges, Weather by CustomWeather, © 2014

Note: Actual official high and low records may vary slightly from our data, if they occured in-between our weather recording intervals... More about our weather records

Advertising

Saint-Georges weather history for previous 24 hours

 ConditionsComfort  
Time TempWeatherWind HumidityBarometerVisibility
1:00 PM
Jul 25
74 °FMild.7 mph53%29.86 "HgN/A
12:00 PM71 °FMild.6 mph60%29.89 "HgN/A
11:00 AM71 °FMild.5 mph61%29.90 "HgN/A
10:00 AM68 °FMild.5 mph67%29.90 "HgN/A
9:00 AM64 °FMild.2 mph72%29.91 "HgN/A
8:00 AM58 °FCool.3 mph81%29.91 "HgN/A
7:00 AM53 °FCool.2 mph90%29.90 "HgN/A
6:00 AM50 °FCool.2 mph94%29.90 "HgN/A
5:00 AM50 °FCool.2 mph94%29.90 "HgN/A
4:00 AM51 °FCool.1 mph93%29.89 "HgN/A
3:00 AM52 °FCool.2 mph91%29.89 "HgN/A
2:00 AM53 °FCool.2 mph90%29.88 "HgN/A
1:00 AM53 °FCool.No wind88%29.89 "HgN/A
11:00 PM
Jul 24
58 °FCool.2 mph71%29.88 "HgN/A
10:00 PM59 °FCool.1 mph70%29.88 "HgN/A
5:00 PM68 °FMild.5 mph48%29.86 "HgN/A
Weather by CustomWeather, © 2014

See weather overviewHow to use our weather pages